DW2465 Weather Reports


time (UTC)temp
F
wind
direction
speed
knots
gust
knots
rain 1hr
in
rain 24hr
in
rain mn
in
humidity
%
barometer
mb
20260509010010 66 297 0.0 0.0 0.00 0.00 0.00 27 1000.7
20260509004516 67 283 0.0 0.0 0.00 0.00 0.00 25 1000.6
20260509003008 68 319 0.0 0.0 0.00 0.00 0.00 25 1000.5
20260509001508 68 254 0.0 0.0 0.00 0.00 0.00 24 1000.5
20260509000006 69 311 0.0 0.0 0.00 0.00 0.00 24 1000.4
20260508234505 69 322 0.0 0.0 0.00 0.00 0.00 25 1000.4
20260508233004 68 268 0.0 0.0 0.00 0.00 0.00 25 1000.6
20260508231503 70 282 0.0 0.0 0.00 0.00 0.00 24 1000.6
20260508230105 70 252 0.0 0.0 0.00 0.00 0.00 24 1000.6
20260508230000 70 271 0.0 0.0 0.00 0.00 0.00 24 1000.6
20260508224602 70 288 0.0 0.0 0.00 0.00 0.00 26 1000.5
20260508223058 69 244 0.0 0.0 0.00 0.00 0.00 26 1000.5
20260508221557 70 265 0.0 0.0 0.00 0.00 0.00 26 1000.7
20260508220053 70 275 0.0 0.0 0.00 0.00 0.00 26 1000.7
20260508214551 69 262 0.0 0.0 0.00 0.00 0.00 26 1000.8
20260508213050 69 314 0.0 0.0 0.00 0.00 0.00 25 1001.1
20260508211547 69 245 0.0 0.0 0.00 0.00 0.00 26 1001.1
20260508210043 69 309 0.0 0.0 0.00 0.00 0.00 26 1001.3
20260508204544 68 241 0.0 0.0 0.00 0.00 0.00 26 1001.6
20260508203040 68 234 0.0 0.0 0.00 0.00 0.00 26 1001.8
20260508201538 68 260 0.0 0.0 0.00 0.00 0.00 25 1002.2
20260508200031 68 239 0.0 0.0 0.00 0.00 0.00 26 1002.5
20260508194535 67 272 0.0 0.0 0.00 0.00 0.00 25 1002.7
20260508193028 67 315 0.0 0.0 0.00 0.00 0.00 24 1003.0
20260508191528 68 239 0.0 0.0 0.00 0.00 0.00 26 1003.2
20260508190022 67 306 0.0 0.0 0.00 0.00 0.00 24 1003.4
20260508184521 67 265 0.0 0.0 0.00 0.00 0.00 25 1003.5
20260508183023 66 242 0.0 0.0 0.00 0.00 0.00 24 1003.8
20260508181516 66 267 0.0 0.0 0.00 0.00 0.00 23 1003.8
20260508180044 66 307 0.0 0.0 0.00 0.00 0.00 24 1004.0
20260508174541 66 360 0.0 0.0 0.00 0.00 0.00 23 1004.3
20260508173035 65 298 0.0 0.0 0.00 0.00 0.00 24 1004.6
20260508171533 64 200 0.0 0.0 0.00 0.00 0.00 25 1004.9
20260508170030 64 293 0.0 0.0 0.00 0.00 0.00 26 1005.3
20260508164529 64 298 0.0 0.0 0.00 0.00 0.00 25 1005.3
20260508163026 63 250 0.0 0.0 0.00 0.00 0.00 25 1005.5
20260508161520 62 268 0.0 0.0 0.00 0.00 0.00 27 1005.8
20260508160016 61 219 0.0 0.0 0.00 0.00 0.00 30 1006.0
20260508154534 60 227 0.0 0.0 0.00 0.00 0.00 33 1006.1
20260508153012 59 243 0.0 0.0 0.00 0.00 0.00 36 1006.5
20260508151506 57 257 0.0 0.0 0.00 0.00 0.00 36 1006.6
20260508150059 56 252 0.0 0.0 0.00 0.00 0.00 38 1006.8
20260508144608 55 245 0.0 0.0 0.00 0.00 0.00 41 1007.0
20260508143053 53 238 0.0 0.0 0.00 0.00 0.00 42 1007.1
20260508141545 52 226 0.0 0.0 0.00 0.00 0.00 43 1007.2
20260508140042 51 194 0.0 0.0 0.00 0.00 0.00 45 1007.3
20260508134553 50 193 0.0 0.0 0.00 0.00 0.00 45 1007.3
20260508133048 49 202 0.0 0.0 0.00 0.00 0.00 45 1007.4
20260508131504 49 221 0.0 0.0 0.00 0.00 0.00 45 1007.4
20260508130005 49 201 0.0 0.0 0.00 0.00 0.00 44 1007.5
20260508124604 49 238 0.0 0.0 0.00 0.00 0.00 45 1007.5
20260508123056 47 209 0.0 0.0 0.00 0.00 0.00 46 1007.6
20260508121556 45 209 0.0 0.0 0.00 0.00 0.00 47 1007.5
20260508120054 45 224 0.0 0.0 0.00 0.00 0.00 47 1007.3
20260508114552 44 198 0.0 0.0 0.00 0.00 0.00 48 1007.3
20260508113051 44 205 0.0 0.0 0.00 0.00 0.00 49 1007.3
20260508111553 44 224 0.0 0.0 0.00 0.00 0.00 50 1007.3
20260508110049 44 213 0.0 0.0 0.00 0.00 0.00 50 1007.2
20260508104546 44 201 0.0 0.0 0.00 0.00 0.00 49 1007.3
20260508103045 44 200 0.0 0.0 0.00 0.00 0.00 48 1007.4
20260508101544 44 194 0.0 0.0 0.00 0.00 0.00 47 1007.4
20260508100056 44 200 0.0 0.0 0.00 0.00 0.00 47 1007.6
20260508094540 44 188 0.0 0.0 0.00 0.00 0.00 47 1007.7
20260508093038 44 220 0.0 0.0 0.00 0.00 0.00 47 1007.7
20260508091540 44 219 0.0 0.0 0.00 0.00 0.00 48 1007.7
20260508090054 44 232 0.0 0.0 0.00 0.00 0.00 46 1007.7
20260508084532 45 232 0.0 0.0 0.00 0.00 0.00 45 1007.6
20260508083030 45 205 0.0 0.0 0.00 0.00 0.00 44 1007.7
20260508081532 45 225 0.0 0.0 0.00 0.00 0.00 44 1007.7
20260508080027 45 163 0.0 0.0 0.00 0.00 0.00 45 1007.9
20260508074526 45 201 0.0 0.0 0.00 0.00 0.00 45 1007.9
20260508073021 45 199 0.0 0.0 0.00 0.00 0.00 45 1008.1
20260508071520 45 186 0.0 0.0 0.00 0.00 0.00 46 1008.2
20260508070019 45 181 0.0 0.0 0.00 0.00 0.00 46 1008.4
20260508064514 45 205 0.0 0.0 0.00 0.00 0.00 47 1008.4
20260508063013 46 214 0.0 0.0 0.00 0.00 0.00 46 1008.5
20260508061512 46 184 0.0 0.0 0.00 0.00 0.00 47 1008.6
20260508060010 46 219 0.0 0.0 0.00 0.00 0.00 46 1008.7
20260508054539 46 219 0.0 0.0 0.00 0.00 0.00 46 1008.6
20260508053039 46 241 0.0 0.0 0.00 0.00 0.00 47 1008.7
20260508051540 46 281 0.0 0.0 0.00 0.00 0.00 50 1008.7
20260508050034 47 281 0.0 0.0 0.00 0.00 0.00 47 1008.9
20260508044532 47 281 0.0 0.0 0.00 0.00 0.00 47 1009.0
20260508043031 47 281 0.0 0.0 0.00 0.00 0.00 48 1009.1
20260508041529 48 281 0.0 0.0 0.00 0.00 0.00 47 1009.1
20260508040029 48 281 0.0 0.0 0.00 0.00 0.00 46 1009.2
20260508034540 48 281 0.0 0.0 0.00 0.00 0.00 45 1009.3
20260508033028 48 281 0.0 0.0 0.00 0.00 0.00 45 1009.4
20260508031531 49 281 0.0 0.0 0.00 0.00 0.00 41 1009.4
20260508030026 49 281 0.0 0.0 0.00 0.00 0.00 43 1009.5
20260508024547 49 281 0.0 0.0 0.00 0.00 0.00 43 1009.5
20260508023024 50 281 0.0 0.0 0.00 0.00 0.00 39 1009.6
20260508021524 50 281 0.0 0.0 0.00 0.00 0.00 39 1009.5
20260508020057 52 281 0.0 0.0 0.00 0.00 0.00 36 1009.3
20260508014556 53 281 0.0 0.0 0.00 0.00 0.00 35 1009.2
20260508013023 54 281 0.0 0.0 0.00 0.00 0.00 33 1009.2
20260508011526 55 281 0.0 0.0 0.00 0.00 0.00 32 1008.9